Retour au catalogue

STARLINK-34141

ActifCommunicationsVLEO
NORAD 64020·PAYLOAD·🇺🇸 United States

Lancé May 14, 2025 depuis Cape Canaveral Space Force Station

Loading…

Prochains Passages (prochaines 24 heures)

TLE

FraisSource: CelesTrak SupGP

Époque: Sep 15, 2026, 02:34 UTC

1 64020C 25101AC  26258.10743056  .00013987  00000+0  50653-3 0  2587
2 64020  43.0044   8.3055 0001596 264.3748  81.4772 15.27576771    13

Suivez STARLINK-34141 en temps réel avec AllMySat

Download on the App Store